Flag for U.S.A. Weather past 2 weeks in Warren, Michigan, U.S.A.

34 °F

Passing clouds.

Feels Like: 27 °F
Forecast: 29 / 40 °F
Wind: 9 mph from North

Location: Detroit City Airport

Current Time: Nov 28, 2015 at 7:23:34 AM

Latest Report: Nov 28, 2015 at 7:01 AM

Visibility: 10 mi

Pressure: 30.36 "Hg

Humidity: 85%

Dew point: 30 °F

Location of WarrenLocation

Historic Weather in Warren — Graph


Warren temperature yesterday

Maximum temperature yesterday: 58 °F (at 1:53 AM)
Minimum temperature yesterday: 35 °F (at 8:53 PM)
Average temperature yesterday: 47 °F

Past Weeks' High & Low Weather Summary

High63 °F (Nov 15, 1:53 PM)96% (Nov 21, 11:53 AM)30.48 "Hg (Nov 21, 11:53 AM)
Low22 °F (Nov 22, 11:53 PM)28% (Nov 19, 5:53 PM)29.69 "Hg (Nov 18, 11:53 PM)
Average43 °F66%30.16 "Hg
* Reported Nov 13 6:53 AM — Nov 28 6:02 AM, Warren, Weather by CustomWeather, © 2015

Note: Actual official high and low records may vary slightly from our data, if they occured in-between our weather recording intervals... More about our weather records


Warren weather history for previous 24 hours

Time TempWeatherWind HumidityBarometerVisibility
6:02 AM
Sat, Nov 28
35 °FMostly cloudy.12 mph82%30.35 "Hg10 mi
5:53 AM35 °FMostly cloudy.10 mph82%30.37 "Hg10 mi
4:53 AM34 °FOvercast.13 mph88%30.37 "Hg10 mi
3:53 AM35 °FOvercast.9 mph85%30.37 "Hg10 mi
2:53 AM34 °FPassing clouds.12 mph88%30.37 "Hg10 mi
1:53 AM35 °FLight rain. Mostly cloudy.10 mph88%30.37 "Hg10 mi
12:53 AM35 °FLight rain. Overcast.9 mph88%30.39 "Hg10 mi
11:53 PM
Fri, Nov 27
35 °FLight rain. Mostly cloudy.9 mph88%30.38 "Hg9 mi
10:53 PM35 °FLight rain. Mostly cloudy.12 mph88%30.38 "Hg7 mi
9:53 PM35 °FLight rain. Mostly cloudy.13 mph88%30.38 "Hg10 mi
8:53 PM35 °FLight rain. Mostly cloudy.16 mph88%30.38 "Hg7 mi
7:53 PM36 °FLight rain. Fog.9 mph89%30.39 "Hg4 mi
6:53 PM36 °FLight rain. Fog.12 mph89%30.37 "Hg6 mi
6:03 PM37 °FLight rain. Fog.14 mph89%30.35 "Hg4 mi
4:52 PM38 °FLight rain. Fog.15 mph93%30.33 "Hg4 mi
3:53 PM41 °FFog.12 mph93%30.30 "Hg3 mi
2:53 PM43 °FLight rain. Fog.15 mph93%30.27 "Hg3 mi
1:53 PM45 °FFog.12 mph93%30.26 "Hg4 mi
1:02 PM54 °FLight rain. Fog.15 mph90%30.23 "Hg6 mi
11:53 AM54 °FLight rain. Mostly cloudy.12 mph93%30.23 "Hg9 mi
10:53 AM55 °FLight rain. Cloudy.16 mph87%30.24 "Hg8 mi
9:53 AM54 °FLight rain. Fog.15 mph90%30.23 "Hg4 mi
8:53 AM54 °FLight rain. Fog.15 mph90%30.22 "Hg6 mi
7:53 AM55 °FLight rain. More clouds than sun.18 mph87%30.22 "Hg7 mi
Weather by CustomWeather, © 2015

See weather overviewHow to use our weather pages